Weather History for Maxwell AFB, AL

Change the Weather History Date:

Sunday, October 13, 2013

  Actual Average Record
Temperature  
Mean Temperature 72 °F -  
Max Temperature 84 °F 76 °F 89 °F (1997)
Min Temperature 62 °F 55 °F 48 °F (2006)
Cooling Degree Days 8    
Growing Degree Days 22 (Base 50)    
Moisture  
Dew Point 62 °F    
Average Humidity 73    
Maximum Humidity 99    
Minimum Humidity 46    
Precipitation  
Precipitation 0.00 in - - ()
Sea Level Pressure  
Sea Level Pressure 30.14 in    
Wind  
Wind Speed 4 mph (North)    
Max Wind Speed 12 mph    
Max Gust Speed -    
Visibility 10 miles    
Events Rain    
Averages and records for this station are not official NWS values.
T = Trace of Precipitation, MM = Missing Value Source: NWS Daily Summary

Daily Weather History Graph

Daily Weather History Graph

Search for Another Location

Airport:

Trip Planner

Search our weather history database for the weather conditions in past years. The results will help you decide how hot, cold, wet, or windy it might be!

Date:

Astronomy

Oct. 13, 2013 Rise Set
Actual Time 6:47 AM CDT 6:14 PM CDT
Civil Twilight 6:23 AM CDT 6:39 PM CDT
Nautical Twilight 5:54 AM CDT 7:07 PM CDT
Astronomical Twilight 5:26 AM CDT 7:36 PM CDT
Moon 2:49 PM CDT (10/13) 1:15 AM CDT (10/13)
Length of Visible Light 12h 16m
Length of Day
11h 26m
Waxing Gibbous, 69% of the Moon is Illuminated
Oct 13
Waxing Gibbous
Oct 18
Full
Oct 26
Last Quarter
Nov 3
New
Nov 9
First Quarter

Hourly Weather History & Observations

Time (CDT) Temp. Heat Index Dew Point Humidity Pressure Visibility Wind Dir Wind Speed Gust Speed Precip Events Conditions
12:58 AM 64.9 °F - 64.6 °F 99% 30.10 in 10.0 mi NNE 2.3 mph - N/A   Clear
1:58 AM 64.8 °F - 64.4 °F 99% 30.10 in 10.0 mi Calm Calm - N/A   Clear
2:58 AM 64.8 °F - 64.2 °F 98% 30.10 in 10.0 mi NNE 2.3 mph - N/A   Clear
3:58 AM 63.1 °F - 62.2 °F 97% 30.11 in 6.0 mi NNW 1.2 mph - N/A   Clear
4:58 AM 62.8 °F - 61.9 °F 97% 30.12 in 10.0 mi North 2.3 mph - N/A   Clear
5:58 AM 62.8 °F - 61.7 °F 96% 30.14 in 9.0 mi North 2.3 mph - N/A   Scattered Clouds
6:58 AM 63.1 °F - 61.3 °F 94% 30.15 in 7.0 mi Calm Calm - N/A   Mostly Cloudy
7:58 AM 65.8 °F - 63.5 °F 92% 30.17 in 10.0 mi NNE 2.3 mph - N/A   Clear
8:58 AM 69.6 °F - 62.2 °F 77% 30.18 in 10.0 mi NNE 5.8 mph - N/A   Clear
9:58 AM 74.3 °F - 61.5 °F 64% 30.20 in 10.0 mi North 3.5 mph - N/A   Clear
10:58 AM 77.7 °F - 61.0 °F 56% 30.20 in 10.0 mi NE 5.8 mph - N/A   Clear
11:58 AM 81.0 °F 81.7 °F 60.4 °F 50% 30.18 in 10.0 mi Variable 5.8 mph - N/A   Clear
12:37 PM 82.4 °F 82.9 °F 60.8 °F 48% 30.15 in 10.0 mi NNE 11.5 mph - N/A Rain Light Rain
12:42 PM 82.4 °F 82.9 °F 60.8 °F 48% 30.15 in 10.0 mi NNE 10.4 mph - N/A   Clear
12:58 PM 83.5 °F 83.7 °F 60.6 °F 46% 30.15 in 10.0 mi North 10.4 mph - 0.00 in   Clear
1:58 PM 82.9 °F 83.2 °F 60.3 °F 46% 30.13 in 10.0 mi North 9.2 mph - N/A   Clear
2:58 PM 82.8 °F 83.4 °F 61.5 °F 49% 30.12 in 10.0 mi NNE 6.9 mph - N/A   Clear
3:58 PM 82.8 °F 83.0 °F 60.3 °F 46% 30.11 in 10.0 mi NNW 10.4 mph - N/A   Clear
4:58 PM 81.7 °F 82.6 °F 61.9 °F 51% 30.12 in 10.0 mi North 8.1 mph - N/A   Clear
5:58 PM 77.0 °F - 62.8 °F 61% 30.12 in 10.0 mi North 4.6 mph - N/A   Clear
6:58 PM 72.3 °F - 64.8 °F 77% 30.12 in 10.0 mi North 4.6 mph - N/A   Clear
7:58 PM 70.2 °F - 64.8 °F 83% 30.14 in 10.0 mi North 3.5 mph - N/A   Clear
8:58 PM 69.4 °F - 63.5 °F 81% 30.15 in 10.0 mi NNE 2.3 mph - N/A   Clear
9:58 PM 67.1 °F - 62.8 °F 86% 30.16 in 10.0 mi NNE 3.5 mph - N/A   Clear
10:58 PM 67.6 °F - 61.2 °F 80% 30.15 in 10.0 mi North 3.5 mph - N/A   Clear
11:58 PM 64.9 °F - 61.0 °F 87% 30.14 in 10.0 mi North 3.5 mph - N/A   Clear